Wind_Speed
4 4 4 3 4 5 5 4 4 3 2 2 2 1 1 1 1 1 2 1 2 2 2 2 3 3 3 4 4 4 5 5 6 7 7 7 7 7 7 6 6 6 7 7 7 7 7 7 7
3 3 3 3 3 4 4 3 3 3 2 1 1 1 1 1 1 1 2 2 3 3 3 3 3 4 4 5 6 6 6 6 7 8 8 8 8 7 7 7 7 7 7 8 8 7 7 7 7
3 3 3 3 3 4 4 3 3 2 1 1 1 1 1 1 1 2 2 2 3 4 4 4 5 5 5 6 6 7 7 7 7 8 8 8 7 7 7 8 8 7 7 8 7 7 6 7 7
3 3 3 4 3 3 3 3 2 1 1 1 1 1 1 2 2 2 2 2 3 4 4 5 6 6 6 6 6 7 7 7 7 8 8 8 8 8 8 8 8 8 8 8 8 8 7 7 8
3 3 3 3 3 2 2 2 1 1 1 1 1 1 2 2 2 3 3 3 3 4 4 5 5 6 6 7 7 7 8 8 8 8 9 9 9 9 9 9 8 8 8 8 8 8 8 8 8
3 4 3 3 3 2 1 1 1 1 1 0 1 1 2 3 3 3 4 4 4 4 4 4 5 6 7 7 7 8 8 8 7 8 9 9 10 9 8 8 9 8 9 9 9 9 9 9 9
4 4 3 2 2 1 1 1 0 1 1 1 1 1 2 2 3 3 4 4 4 4 5 5 6 7 7 7 7 7 7 7 7 8 9 9 9 8 8 8 9 8 8 9 9 9 9 9 9
4 3 3 2 2 1 1 1 1 1 2 2 2 2 2 2 3 3 3 4 4 4 4 5 6 6 6 7 7 8 7 7 8 8 8 8 8 8 8 8 9 8 9 9 9 9 9 9 9
4 4 3 3 3 2 1 1 2 2 2 3 3 2 2 3 3 3 3 4 4 4 4 5 5 5 6 6 7 7 7 7 7 8 8 8 8 8 9 9 9 9 9 9 9 9 9 9 9
5 4 4 3 3 3 2 2 2 3 3 3 3 3 3 3 3 3 3 4 4 4 4 4 5 6 6 6 7 7 7 7 7 8 8 9 9 9 9 9 9 8 9 9 9 9 9 9 9
5 4 3 3 3 3 3 3 4 4 4 4 4 4 3 4 4 4 4 4 4 4 4 5 5 6 7 7 7 7 7 7 7 8 8 9 9 9 9 9 8 8 8 9 9 9 9 9 8
5 5 4 4 4 4 4 4 4 4 4 5 4 4 4 4 4 4 4 4 4 4 4 4 4 5 6 7 7 7 7 7 8 8 8 8 9 9 9 9 8 8 8 9 9 9 9 9 9
5 5 5 5 5 5 5 5 5 5 5 6 5 5 5 4 4 4 4 4 4 5 4 4 5 6 6 7 7 8 8 8 8 8 8 9 9 9 9 9 9 9 9 9 9 9 9 9 9
5 5 5 5 5 6 6 6 6 5 5 6 6 6 6 5 5 5 5 5 5 5 5 6 6 7 7 8 8 9 9 9 9 9 8 8 9 9 9 9 9 9 9 9 9 9 9 9 9
6 6 6 5 6 6 7 6 6 6 6 6 6 5 6 6 5 5 5 5 6 7 7 7 8 8 8 8 10 10 9 9 9 9 9 9 9 9 9 9 9 9 9 9 9 9 9 9 9
7 6 5 5 5 6 6 7 7 7 6 6 6 5 5 6 6 6 6 6 7 8 8 8 9 9 9 10 10 10 10 9 9 9 8 9 9 9 9 9 9 9 9 9 9 9 9 8 8
6 5 5 5 5 5 6 7 8 8 6 6 6 6 6 6 7 7 7 7 7 8 9 9 10 10 10 11 11 11 10 10 9 9 9 9 9 9 9 10 10 9 9 9 9 9 9 8 8
6 6 6 6 6 6 6 7 8 8 7 6 6 7 7 7 8 8 8 8 9 9 10 10 11 11 11 11 11 11 11 10 10 9 10 10 10 10 10 10 10 10 10 10 10 10 10 9 9
7 7 7 7 7 7 7 7 8 8 7 7 7 7 7 8 9 10 10 10 10 11 11 11 11 11 11 11 11 11 11 11 11 10 11 11 11 11 11 11 11 11 10 11 11 10 10 10 10
8 8 8 8 8 8 8 8 8 8 7 7 8 8 9 10 10 11 11 11 11 11 11 11 11 11 11 11 11 11 12 12 11 11 12 12 12 12 12 12 11 11 11 11 11 10 10 11 11
9 9 9 9 9 9 10 9 9 9 8 8 8 8 9 10 10 11 11 11 11 12 12 12 12 12 12 12 12 12 13 12 12 12 12 12 12 12 12 13 13 12 12 11 12 12 12 12 12
10 10 11 11 10 10 11 10 10 9 9 9 9 9 10 10 11 11 11 12 12 12 12 13 13 13 14 14 14 14 14 13 13 13 13 13 13 13 13 13 14 14 14 13 13 13 14 14 14
12 12 12 12 11 11 11 11 10 10 10 9 9 10 11 12 12 13 13 13 13 13 14 14 14 14 15 15 16 15 15 15 15 15 15 14 14 14 14 14 14 14 14 14 14 15 15 15 15
12 13 12 12 12 12 11 11 10 11 10 11 11 11 12 13 14 14 14 14 15 15 15 16 16 16 16 17 18 17 17 17 17 17 17 16 16 16 16 16 16 16 16 16 16 16 16 16 17
13 12 13 13 13 13 12 12 11 11 11 11 11 12 13 14 14 15 15 16 16 16 16 16 17 18 18 19 19 19 19 19 19 19 19 19 19 18 18 18 18 18 18 18 17 17 18 18 18
13 13 13 14 14 14 13 13 12 13 13 13 13 13 14 14 15 16 16 17 17 17 17 17 18 19 20 20 21 21 21 20 20 20 20 21 21 20 20 20 20 19 19 19 19 19 19 19 19
13 13 14 15 15 16 15 15 14 14 14 14 14 14 15 15 16 17 18 18 18 19 19 19 20 20 21 21 21 22 22 22 22 22 22 22 22 22 22 22 22 22 21 22 22 21 21 21 21
14 14 15 16 17 17 17 17 17 16 16 16 16 17 17 17 18 18 19 20 20 20 20 20 21 21 22 22 22 23 23 23 23 23 23 24 24 24 24 25 25 24 24 23 23 23 23 23 23
15 15 17 18 18 19 19 18 19 18 17 18 18 18 19 19 19 19 19 20 20 21 22 22 22 23 23 23 24 24 24 24 24 24 24 25 25 26 26 26 26 26 25 25 25 25 24 24 24
16 16 17 18 19 20 21 19 20 19 18 19 19 19 19 20 20 21 21 20 21 22 23 23 24 23 24 24 24 25 25 25 25 26 26 26 26 27 27 27 27 27 27 27 26 26 26 27 27
Wind_Direction
198 194 195 201 201 204 206 212 211 186 168 141 124 115 174 213 227 230 240 254 269 286 298 298 303 314 307 303 306 302 300 300 299 297 292 295 294 295 299 293 296 294 291 291 290 285 287 293 292
201 197 201 206 199 199 198 206 199 175 182 154 132 147 240 267 273 255 252 258 272 284 288 294 301 301 302 302 302 303 305 305 299 299 295 293 295 295 297 293 297 296 294 291 287 289 288 293 298
203 204 207 210 205 200 199 197 191 168 153 150 144 207 254 273 279 272 273 272 274 281 287 292 295 297 299 300 304 303 301 306 305 297 293 290 292 294 294 295 297 299 297 294 291 290 291 298 305
203 206 208 211 211 202 187 189 182 189 170 192 231 262 263 264 266 268 272 277 283 286 288 288 290 291 293 296 298 297 297 301 300 298 292 288 288 291 293 293 294 298 299 300 296 292 296 304 310
205 212 210 218 215 214 200 202 205 218 215 195 226 252 257 256 267 270 271 278 290 293 290 293 294 294 294 295 296 294 295 293 292 293 287 286 285 287 290 289 295 297 300 302 301 301 299 305 309
202 206 203 214 216 209 179 183 211 222 257 269 265 267 267 272 278 280 284 289 291 294 296 297 301 302 299 297 296 294 298 295 291 295 292 287 285 285 288 290 295 295 298 297 300 304 303 306 310
195 199 192 196 208 202 178 191 216 264 277 291 295 291 277 277 276 277 284 291 292 294 299 303 303 302 300 299 297 296 298 297 294 297 295 293 292 293 293 292 294 297 298 299 299 303 304 303 307
202 202 200 204 211 215 198 220 288 310 294 296 305 301 282 276 276 278 283 287 291 296 301 306 303 300 299 298 294 297 298 298 299 298 297 297 295 294 292 292 294 296 297 298 299 302 304 303 305
208 212 219 220 214 220 226 285 287 289 292 290 290 292 297 289 284 286 292 294 296 300 301 305 310 312 311 306 301 299 298 298 299 299 299 299 297 295 293 293 296 295 296 300 302 303 305 301 300
208 220 233 234 227 235 246 261 278 284 286 283 279 281 285 289 292 290 293 295 297 299 303 307 314 316 314 313 310 305 303 301 301 299 299 297 296 295 294 293 295 296 293 297 302 302 303 302 299
211 223 236 238 240 244 255 266 278 287 289 285 283 276 273 278 286 295 292 286 291 298 303 308 317 316 318 315 313 312 308 305 303 303 302 297 295 295 294 293 293 294 295 295 297 300 304 301 301
213 223 235 242 254 258 259 271 279 280 283 285 284 279 273 271 279 287 286 287 291 296 304 304 312 315 320 320 320 315 312 309 307 308 304 301 297 296 293 290 291 295 299 301 299 296 298 300 303
221 231 235 247 252 257 260 264 272 280 282 279 280 278 275 267 265 271 282 285 288 295 301 304 312 312 313 317 319 318 316 315 313 311 312 306 301 299 293 290 293 292 295 297 297 299 299 300 300
231 239 242 246 250 253 261 266 267 277 279 277 281 277 274 268 264 271 279 284 286 289 290 296 302 310 313 315 315 319 319 316 316 310 308 306 306 302 297 297 295 295 297 297 296 296 296 297 297
237 244 250 246 250 253 261 266 268 272 272 272 274 278 277 273 273 277 280 283 285 285 285 290 297 304 310 311 312 314 316 314 316 315 309 303 304 305 301 300 300 302 303 303 301 297 297 297 296
240 242 249 252 255 258 261 264 271 273 270 266 267 272 277 279 279 282 282 283 284 286 287 289 294 297 300 302 305 309 312 315 316 316 312 301 296 297 298 299 301 301 303 306 306 303 301 298 298
240 243 250 254 256 260 265 270 273 275 273 268 270 272 277 283 284 283 284 287 284 285 289 289 291 293 296 300 302 304 306 310 314 310 305 302 297 293 292 294 296 299 301 302 304 305 302 299 296
251 252 253 256 261 265 269 269 278 279 280 276 275 274 275 278 282 282 286 286 285 287 289 290 289 289 292 295 297 298 301 303 305 305 302 302 295 292 290 289 290 292 296 300 302 302 298 295 294
252 254 253 257 264 268 271 271 279 279 281 280 275 275 276 277 280 282 283 283 284 285 288 288 289 290 290 293 293 293 295 295 295 297 299 301 298 295 295 292 290 290 294 297 297 296 293 291 293
250 255 258 260 266 269 270 273 275 276 279 282 280 279 277 276 278 279 281 280 281 282 285 287 286 286 286 289 289 286 287 288 289 289 292 295 296 296 297 293 289 289 291 293 294 293 292 292 293
256 257 261 265 263 266 268 271 272 274 278 284 285 285 281 281 279 281 282 280 280 281 282 284 283 281 279 279 281 281 283 287 286 286 288 290 291 292 295 294 290 289 289 290 291 291 290 291 291
257 258 259 260 262 264 267 270 270 275 281 284 286 286 287 284 286 286 287 285 283 284 282 283 282 279 276 275 277 281 281 284 285 282 284 288 290 291 291 292 292 291 289 287 288 290 289 291 292
265 264 263 263 263 265 267 271 270 275 280 283 285 288 287 288 290 290 288 288 285 284 284 283 282 280 278 278 277 279 279 281 281 282 283 285 288 289 289 289 289 290 290 289 289 290 289 290 291
266 267 267 264 265 268 270 271 269 276 281 281 286 290 290 291 293 293 289 288 286 284 282 281 282 281 279 280 280 281 279 281 281 282 283 283 285 287 287 287 286 286 286 286 287 288 289 290 290
263 265 265 263 263 267 271 272 274 280 282 286 288 291 291 292 293 292 290 287 284 283 282 282 282 281 281 282 281 282 281 281 282 281 282 282 283 284 284 284 285 284 284 284 284 286 287 289 290
265 265 266 268 268 270 273 275 278 280 282 287 290 291 293 293 292 290 288 287 284 282 282 281 281 280 280 281 280 281 281 281 281 282 282 281 281 280 279 280 281 282 282 283 284 284 285 286 287
264 265 268 270 271 273 275 278 279 280 283 288 291 291 291 294 293 290 287 285 284 283 284 284 283 281 280 281 281 280 281 281 281 281 281 280 279 278 277 278 279 281 281 282 282 283 284 285 286
264 268 270 272 274 274 277 279 281 282 285 287 288 289 289 290 289 287 285 283 283 284 284 284 283 282 282 282 281 281 280 280 281 281 280 279 278 278 278 277 277 278 279 279 281 281 282 284 285
264 266 268 272 275 278 278 278 282 282 284 285 286 286 287 287 287 284 282 282 282 282 283 283 283 283 282 281 280 280 281 280 280 280 280 280 279 278 279 278 276 277 278 279 279 280 280 282 283
267 269 270 272 275 277 279 279 281 281 281 283 284 285 286 286 287 284 282 280 282 284 284 284 283 283 281 281 281 280 280 280 280 281 281 282 281 280 279 277 277 277 276 277 277 278 279 281 282
Height
5874 5874 5875 5877 5877 5877 5877 5878 5877 5877 5878 5878 5879 5879 5879 5880 5881 5883 5881 5880 5880 5879 5879 5879 5879 5879 5879 5878 5878 5877 5877 5877 5876 5875 5875 5874 5873 5873 5872 5871 5871 5870 5870 5869 5868 5868 5867 5866 5865
5874 5875 5876 5877 5876 5876 5877 5877 5877 5877 5878 5878 5878 5879 5879 5879 5879 5880 5879 5879 5879 5879 5879 5879 5878 5878 5878 5878 5878 5877 5877 5876 5875 5874 5873 5873 5872 5872 5871 5870 5870 5869 5868 5868 5867 5866 5866 5865 5864
5874 5875 5876 5876 5876 5877 5877 5876 5876 5877 5877 5877 5878 5878 5878 5878 5878 5878 5879 5878 5878 5878 5878 5878 5878 5877 5877 5877 5877 5876 5876 5875 5874 5873 5872 5871 5871 5871 5870 5869 5869 5868 5867 5867 5866 5865 5864 5863 5862
5874 5876 5876 5876 5876 5876 5876 5876 5876 5876 5877 5877 5877 5877 5878 5878 5878 5878 5878 5878 5877 5877 5877 5877 5876 5876 5876 5876 5876 5875 5875 5874 5873 5872 5871 5871 5870 5869 5869 5868 5868 5867 5866 5865 5865 5864 5863 5862 5861
5874 5875 5876 5875 5875 5875 5875 5875 5875 5876 5876 5877 5877 5877 5877 5877 5877 5877 5877 5877 5877 5876 5876 5876 5875 5875 5875 5875 5874 5874 5873 5872 5871 5871 5870 5869 5869 5868 5867 5867 5866 5866 5865 5864 5863 5863 5862 5861 5860
5874 5875 5875 5875 5875 5875 5875 5875 5875 5875 5876 5876 5876 5876 5876 5876 5876 5876 5876 5876 5876 5876 5875 5875 5875 5874 5874 5873 5873 5872 5871 5869 5869 5869 5868 5868 5867 5866 5866 5865 5865 5864 5863 5863 5862 5861 5860 5859 5858
5875 5874 5874 5874 5874 5874 5875 5874 5875 5875 5875 5876 5876 5876 5875 5875 5875 5875 5875 5875 5874 5874 5874 5874 5874 5873 5873 5872 5872 5871 5870 5869 5868 5868 5867 5866 5866 5865 5864 5864 5863 5862 5862 5861 5860 5860 5859 5858 5857
5873 5874 5873 5874 5874 5874 5874 5874 5874 5874 5875 5875 5875 5875 5875 5875 5874 5874 5874 5874 5873 5873 5873 5873 5872 5872 5871 5871 5870 5870 5869 5868 5867 5867 5866 5865 5865 5864 5863 5862 5862 5861 5860 5859 5858 5858 5857 5856 5855
5873 5874 5873 5873 5874 5874 5874 5874 5874 5874 5874 5874 5874 5874 5874 5874 5873 5873 5873 5872 5872 5872 5872 5872 5871 5871 5870 5869 5869 5868 5867 5867 5866 5865 5865 5864 5863 5862 5862 5861 5860 5859 5858 5858 5857 5856 5855 5855 5854
5872 5872 5872 5873 5873 5873 5873 5873 5873 5873 5873 5873 5873 5873 5873 5872 5872 5872 5872 5871 5871 5871 5871 5871 5870 5870 5869 5868 5867 5866 5866 5865 5865 5864 5863 5862 5861 5861 5860 5859 5858 5857 5857 5856 5855 5855 5854 5853 5852
5871 5871 5871 5871 5871 5872 5872 5872 5872 5872 5872 5872 5872 5872 5871 5871 5871 5871 5871 5870 5870 5870 5870 5870 5869 5868 5868 5867 5866 5865 5864 5863 5863 5862 5861 5860 5860 5859 5858 5857 5856 5856 5855 5854 5853 5853 5852 5851 5850
5870 5870 5871 5871 5870 5871 5871 5871 5871 5871 5871 5871 5870 5870 5870 5870 5870 5870 5870 5870 5869 5869 5869 5868 5868 5867 5866 5866 5865 5864 5863 5862 5861 5860 5859 5858 5857 5857 5856 5855 5854 5854 5853 5853 5852 5851 5850 5849 5848
5869 5869 5870 5870 5869 5869 5870 5870 5870 5869 5869 5869 5869 5869 5869 5869 5869 5869 5869 5869 5868 5868 5868 5867 5867 5866 5865 5864 5863 5862 5861 5860 5859 5858 5857 5856 5855 5855 5854 5853 5853 5852 5851 5851 5850 5849 5848 5847 5847
5868 5868 5868 5868 5868 5868 5868 5869 5869 5868 5868 5868 5867 5867 5867 5867 5867 5867 5867 5867 5867 5867 5866 5866 5865 5864 5864 5863 5861 5861 5859 5858 5857 5856 5855 5854 5854 5853 5852 5851 5851 5850 5849 5849 5848 5847 5846 5846 5845
5867 5867 5867 5867 5867 5866 5867 5867 5867 5867 5866 5866 5866 5865 5865 5866 5866 5866 5866 5865 5865 5865 5864 5864 5863 5863 5862 5861 5860 5859 5858 5856 5855 5854 5853 5852 5852 5851 5850 5849 5849 5848 5847 5847 5846 5845 5844 5844 5843
5866 5866 5866 5866 5865 5865 5867 5866 5865 5865 5864 5864 5864 5864 5864 5864 5864 5864 5864 5863 5863 5862 5862 5862 5861 5860 5860 5859 5858 5857 5856 5854 5853 5852 5851 5850 5850 5849 5848 5847 5847 5846 5845 5845 5844 5843 5842 5841 5841
5864 5864 5864 5865 5864 5864 5864 5863 5863 5862 5862 5862 5862 5862 5862 5862 5862 5862 5862 5861 5861 5860 5860 5860 5859 5858 5857 5857 5856 5855 5854 5852 5851 5850 5849 5848 5847 5847 5846 5846 5845 5844 5843 5843 5842 5841 5840 5839 5838
5863 5863 5863 5863 5862 5862 5862 5862 5861 5860 5860 5860 5860 5860 5860 5860 5860 5860 5859 5859 5859 5858 5857 5857 5856 5856 5855 5854 5853 5852 5851 5850 5849 5848 5847 5846 5845 5844 5844 5843 5843 5842 5841 5840 5839 5838 5837 5837 5836
5860 5861 5861 5861 5860 5860 5860 5859 5859 5858 5857 5857 5857 5858 5858 5857 5857 5857 5857 5856 5856 5855 5854 5854 5853 5853 5852 5851 5850 5849 5849 5848 5847 5846 5845 5844 5843 5842 5842 5841 5840 5839 5838 5837 5837 5836 5835 5834 5833
5858 5858 5858 5859 5858 5857 5857 5857 5856 5855 5855 5855 5855 5855 5855 5854 5854 5854 5854 5853 5852 5852 5851 5850 5850 5849 5849 5848 5847 5846 5845 5845 5844 5843 5842 5841 5841 5840 5839 5838 5838 5837 5836 5835 5834 5833 5832 5831 5831
5856 5856 5856 5856 5855 5855 5854 5854 5854 5853 5852 5852 5852 5852 5852 5851 5851 5850 5850 5849 5849 5848 5848 5847 5846 5846 5845 5844 5844 5843 5842 5841 5841 5840 5839 5838 5837 5837 5836 5835 5835 5834 5833 5832 5831 5830 5829 5828 5827
5853 5853 5853 5852 5852 5852 5852 5852 5851 5850 5850 5849 5849 5849 5848 5848 5847 5847 5846 5845 5845 5844 5844 5843 5843 5842 5841 5840 5840 5839 5838 5838 5837 5837 5836 5835 5834 5833 5833 5832 5831 5830 5830 5829 5828 5827 5826 5825 5824
5850 5850 5850 5850 5849 5849 5849 5848 5849 5847 5847 5847 5846 5846 5845 5844 5844 5843 5842 5841 5841 5840 5840 5839 5839 5838 5837 5836 5836 5835 5834 5834 5833 5832 5832 5831 5830 5829 5829 5828 5827 5826 5826 5825 5824 5823 5822 5821 5820
5847 5847 5847 5846 5846 5846 5846 5845 5845 5844 5844 5843 5843 5842 5842 5841 5840 5839 5838 5837 5837 5836 5836 5835 5834 5834 5833 5832 5831 5831 5830 5829 5829 5828 5827 5827 5826 5825 5824 5823 5823 5822 5821 5820 5820 5818 5817 5816 5815
5844 5844 5844 5843 5842 5843 5842 5841 5843 5841 5840 5839 5839 5838 5838 5837 5836 5835 5834 5833 5832 5832 5831 5830 5830 5829 5828 5827 5827 5826 5825 5824 5824 5823 5822 5822 5821 5820 5820 5819 5818 5817 5816 5815 5814 5813 5812 5811 5810
5840 5840 5841 5840 5839 5839 5839 5838 5839 5837 5836 5835 5835 5834 5834 5833 5832 5831 5829 5828 5827 5827 5826 5825 5825 5824 5823 5822 5821 5820 5820 5819 5818 5817 5816 5816 5815 5815 5814 5813 5812 5811 5811 5810 5809 5808 5807 5806 5804
5836 5836 5836 5836 5835 5835 5834 5834 5834 5833 5832 5831 5831 5830 5829 5828 5827 5826 5825 5823 5822 5822 5821 5820 5819 5818 5817 5816 5815 5814 5814 5812 5812 5811 5810 5810 5809 5808 5807 5806 5806 5805 5804 5804 5803 5802 5801 5799 5798
5833 5832 5832 5831 5831 5830 5830 5829 5830 5828 5828 5827 5826 5825 5824 5823 5822 5821 5820 5819 5817 5816 5815 5814 5813 5812 5811 5810 5809 5808 5807 5806 5805 5805 5804 5803 5802 5801 5800 5799 5799 5798 5797 5796 5796 5795 5794 5792 5791
5829 5828 5827 5827 5826 5826 5825 5827 5825 5824 5823 5822 5821 5820 5819 5818 5817 5815 5814 5813 5812 5811 5810 5808 5807 5806 5805 5804 5803 5802 5800 5800 5799 5798 5797 5796 5795 5794 5793 5792 5791 5790 5790 5789 5788 5787 5786 5785 5784
5824 5823 5823 5823 5822 5820 5820 5823 5820 5819 5818 5817 5816 5815 5813 5812 5810 5809 5808 5807 5806 5805 5803 5802 5801 5799 5798 5797 5796 5795 5794 5793 5792 5791 5790 5789 5787 5786 5785 5784 5783 5782 5782 5781 5780 5779 5778 5777 5776